Year,Month,Day,Hour,Minute,Value (Times are PST for temperature in C)
2007,06,22,00,00,12.20
2007,06,22,00,01,12.20
2007,06,22,00,02,12.20
2007,06,22,00,03,12.20
2007,06,22,00,04,12.20
2007,06,22,00,05,12.20
2007,06,22,00,06,12.10
2007,06,22,00,07,12.10
2007,06,22,00,08,12.10
2007,06,22,00,09,12.20
2007,06,22,00,10,12.20
2007,06,22,00,11,12.20
2007,06,22,00,12,12.20
2007,06,22,00,13,12.20
2007,06,22,00,14,12.20
2007,06,22,00,15,12.20
2007,06,22,00,16,12.20
2007,06,22,00,17,12.20
2007,06,22,00,18,12.20
2007,06,22,00,19,12.20
2007,06,22,00,20,12.20
2007,06,22,00,21,12.20
2007,06,22,00,22,12.20
2007,06,22,00,23,12.30
2007,06,22,00,24,12.30
2007,06,22,00,25,12.30
2007,06,22,00,26,12.30
2007,06,22,00,27,12.30
2007,06,22,00,28,12.30
2007,06,22,00,29,12.30
2007,06,22,00,30,12.30
2007,06,22,00,31,12.30
2007,06,22,00,32,12.40
2007,06,22,00,33,12.40
2007,06,22,00,34,12.40
2007,06,22,00,35,12.40
2007,06,22,00,36,12.40
2007,06,22,00,37,12.50
2007,06,22,00,38,12.50
2007,06,22,00,39,12.50
2007,06,22,00,40,12.50
2007,06,22,00,41,12.50
2007,06,22,00,42,12.50
2007,06,22,00,43,12.50
2007,06,22,00,44,12.50
2007,06,22,00,45,12.50
2007,06,22,00,46,12.50
2007,06,22,00,47,12.50
2007,06,22,00,48,12.60
2007,06,22,00,49,12.60
2007,06,22,00,50,12.60
2007,06,22,00,51,12.70
2007,06,22,00,52,12.70
2007,06,22,00,53,12.70
2007,06,22,00,54,12.70
2007,06,22,00,55,12.60
2007,06,22,00,56,12.60
2007,06,22,00,57,12.60
2007,06,22,00,58,12.60
2007,06,22,00,59,12.60
2007,06,22,01,00,12.60
2007,06,22,01,01,12.60
2007,06,22,01,02,12.50
2007,06,22,01,03,12.50
2007,06,22,01,04,12.50
2007,06,22,01,05,12.50
2007,06,22,01,06,12.40
2007,06,22,01,07,12.40
2007,06,22,01,08,12.50
2007,06,22,01,09,12.50
2007,06,22,01,10,12.50
2007,06,22,01,11,12.50
2007,06,22,01,12,12.50
2007,06,22,01,13,12.40
2007,06,22,01,14,12.40
2007,06,22,01,15,12.40
2007,06,22,01,16,12.40
2007,06,22,01,17,12.30
2007,06,22,01,18,12.30
2007,06,22,01,19,12.30
2007,06,22,01,20,12.30
2007,06,22,01,21,12.20
2007,06,22,01,22,12.20
2007,06,22,01,23,12.20
2007,06,22,01,24,12.20
2007,06,22,01,25,12.20
2007,06,22,01,26,12.20
2007,06,22,01,27,12.10
2007,06,22,01,28,12.10
2007,06,22,01,29,12.10
2007,06,22,01,30,12.10
2007,06,22,01,31,12.10
2007,06,22,01,32,12.10
2007,06,22,01,33,12.10
2007,06,22,01,34,12.10
2007,06,22,01,35,12.10
2007,06,22,01,36,12.10
2007,06,22,01,37,12.10
2007,06,22,01,38,12.10
2007,06,22,01,39,12.10
2007,06,22,01,40,12.10
2007,06,22,01,41,12.10
2007,06,22,01,42,12.10
2007,06,22,01,43,12.10
2007,06,22,01,44,12.00
2007,06,22,01,45,12.00
2007,06,22,01,46,12.00
2007,06,22,01,47,12.00
2007,06,22,01,48,12.00
2007,06,22,01,49,11.90
2007,06,22,01,50,11.90
2007,06,22,01,51,11.90
2007,06,22,01,52,11.90
2007,06,22,01,53,11.90
2007,06,22,01,54,11.90
2007,06,22,01,55,11.90
2007,06,22,01,56,11.90
2007,06,22,01,57,11.90
2007,06,22,01,58,11.90
2007,06,22,01,59,11.90
2007,06,22,02,00,11.90
2007,06,22,02,01,11.90
2007,06,22,02,02,11.90
2007,06,22,02,03,11.90
2007,06,22,02,04,11.90
2007,06,22,02,05,11.90
2007,06,22,02,06,11.90
2007,06,22,02,07,11.90
2007,06,22,02,08,11.90
2007,06,22,02,09,11.90
2007,06,22,02,10,11.90
2007,06,22,02,11,11.90
2007,06,22,02,12,11.90
2007,06,22,02,13,11.90
2007,06,22,02,14,11.90
2007,06,22,02,15,11.90
2007,06,22,02,16,11.90
2007,06,22,02,17,11.80
2007,06,22,02,18,11.80
2007,06,22,02,19,11.80
2007,06,22,02,20,11.80
2007,06,22,02,21,11.70
2007,06,22,02,22,11.70
2007,06,22,02,23,11.70
2007,06,22,02,24,11.60
2007,06,22,02,25,11.60
2007,06,22,02,26,11.60
2007,06,22,02,27,11.60
2007,06,22,02,28,11.50
2007,06,22,02,29,11.50
2007,06,22,02,30,11.50
2007,06,22,02,31,11.40
2007,06,22,02,32,11.40
2007,06,22,02,33,11.40
2007,06,22,02,34,11.30
2007,06,22,02,35,11.30
2007,06,22,02,36,11.30
2007,06,22,02,37,11.20
2007,06,22,02,38,11.20
2007,06,22,02,39,11.20
2007,06,22,02,40,11.20
2007,06,22,02,41,11.20
2007,06,22,02,42,11.20
2007,06,22,02,43,11.20
2007,06,22,02,44,11.20
2007,06,22,02,45,11.20
2007,06,22,02,46,11.20
2007,06,22,02,47,11.20
2007,06,22,02,48,11.30
2007,06,22,02,49,11.30
2007,06,22,02,50,11.30
2007,06,22,02,51,11.30
2007,06,22,02,52,11.30
2007,06,22,02,53,11.30
2007,06,22,02,54,11.40
2007,06,22,02,55,11.40
2007,06,22,02,56,11.40
2007,06,22,02,57,11.40
2007,06,22,02,58,11.40
2007,06,22,02,59,11.40
2007,06,22,03,00,11.40
2007,06,22,03,01,11.40
2007,06,22,03,02,11.40
2007,06,22,03,03,11.40
2007,06,22,03,04,11.40
2007,06,22,03,05,11.50
2007,06,22,03,06,11.50
2007,06,22,03,07,11.50
2007,06,22,03,08,11.50
2007,06,22,03,09,11.60
2007,06,22,03,10,11.60
2007,06,22,03,11,11.60
2007,06,22,03,12,11.60
2007,06,22,03,13,11.60
2007,06,22,03,14,11.60
2007,06,22,03,15,11.60
2007,06,22,03,16,11.60
2007,06,22,03,17,11.60
2007,06,22,03,18,11.70
2007,06,22,03,19,11.70
2007,06,22,03,20,11.70
2007,06,22,03,21,11.70
2007,06,22,03,22,11.70
2007,06,22,03,23,11.70
2007,06,22,03,24,11.70
2007,06,22,03,25,11.70
2007,06,22,03,26,11.80
2007,06,22,03,27,11.90
2007,06,22,03,28,12.00
2007,06,22,03,29,12.10
2007,06,22,03,30,12.20
2007,06,22,03,31,12.30
2007,06,22,03,32,12.30
2007,06,22,03,33,12.40
2007,06,22,03,34,12.40
2007,06,22,03,35,12.40
2007,06,22,03,36,12.40
2007,06,22,03,37,12.40
2007,06,22,03,38,12.40
2007,06,22,03,39,12.40
2007,06,22,03,40,12.40
2007,06,22,03,41,12.50
2007,06,22,03,42,12.60
2007,06,22,03,43,12.60
2007,06,22,03,44,12.60
2007,06,22,03,45,12.60
2007,06,22,03,46,12.70
2007,06,22,03,47,12.70
2007,06,22,03,48,12.70
2007,06,22,03,49,12.70
2007,06,22,03,50,12.70
2007,06,22,03,51,12.60
2007,06,22,03,52,12.60
2007,06,22,03,53,12.60
2007,06,22,03,54,12.60
2007,06,22,03,55,12.60
2007,06,22,03,56,12.70
2007,06,22,03,57,12.60
2007,06,22,03,58,12.60
2007,06,22,03,59,12.60
2007,06,22,04,00,12.70
2007,06,22,04,01,12.70
2007,06,22,04,02,12.70
2007,06,22,04,03,12.70
2007,06,22,04,04,12.70
2007,06,22,04,05,12.70
2007,06,22,04,06,12.70
2007,06,22,04,07,12.70
2007,06,22,04,08,12.70
2007,06,22,04,09,12.70
2007,06,22,04,10,12.60
2007,06,22,04,11,12.50
2007,06,22,04,12,12.50
2007,06,22,04,13,12.40
2007,06,22,04,14,12.30
2007,06,22,04,15,12.30
2007,06,22,04,16,12.20
2007,06,22,04,17,12.20
2007,06,22,04,18,12.20
2007,06,22,04,19,12.10
2007,06,22,04,20,12.10
2007,06,22,04,21,12.10
2007,06,22,04,22,12.00
2007,06,22,04,23,12.00
2007,06,22,04,24,11.90
2007,06,22,04,25,11.90
2007,06,22,04,26,11.90
2007,06,22,04,27,11.90
2007,06,22,04,28,11.90
2007,06,22,04,29,11.90
2007,06,22,04,30,11.90
2007,06,22,04,31,11.90
2007,06,22,04,32,11.90
2007,06,22,04,33,12.00
2007,06,22,04,34,12.00
2007,06,22,04,35,12.00
2007,06,22,04,36,12.00
2007,06,22,04,37,12.00
2007,06,22,04,38,12.00
2007,06,22,04,39,12.00
2007,06,22,04,40,11.90
2007,06,22,04,41,11.90
2007,06,22,04,42,11.90
2007,06,22,04,43,11.90
2007,06,22,04,44,11.90
2007,06,22,04,45,11.90
2007,06,22,04,46,11.90
2007,06,22,04,47,11.90
2007,06,22,04,48,11.80
2007,06,22,04,49,11.80
2007,06,22,04,50,11.80
2007,06,22,04,51,11.80
2007,06,22,04,52,11.80
2007,06,22,04,53,11.70
2007,06,22,04,54,11.70
2007,06,22,04,55,11.70
2007,06,22,04,56,11.70
2007,06,22,04,57,11.70
2007,06,22,04,58,11.70
2007,06,22,04,59,11.80
2007,06,22,05,00,11.80
2007,06,22,05,01,11.80
2007,06,22,05,02,11.90
2007,06,22,05,03,12.00
2007,06,22,05,04,12.10
2007,06,22,05,05,12.20
2007,06,22,05,06,12.20
2007,06,22,05,07,12.20
2007,06,22,05,08,12.20
2007,06,22,05,09,12.20
2007,06,22,05,10,12.20
2007,06,22,05,11,12.20
2007,06,22,05,12,12.30
2007,06,22,05,13,12.30
2007,06,22,05,14,12.40
2007,06,22,05,15,12.50
2007,06,22,05,16,12.50
2007,06,22,05,17,12.60
2007,06,22,05,18,12.70
2007,06,22,05,19,12.80
2007,06,22,05,20,12.80
2007,06,22,05,21,12.80
2007,06,22,05,22,12.80
2007,06,22,05,23,12.80
2007,06,22,05,24,12.70
2007,06,22,05,25,12.70
2007,06,22,05,26,12.70
2007,06,22,05,27,12.70
2007,06,22,05,28,12.70
2007,06,22,05,29,12.70
2007,06,22,05,30,12.80
2007,06,22,05,31,12.80
2007,06,22,05,32,12.80
2007,06,22,05,33,12.80
2007,06,22,05,34,12.90
2007,06,22,05,35,12.90
2007,06,22,05,36,12.90
2007,06,22,05,37,12.90
2007,06,22,05,38,12.80
2007,06,22,05,39,12.80
2007,06,22,05,40,12.80
2007,06,22,05,41,12.80
2007,06,22,05,42,12.70
2007,06,22,05,43,12.70
2007,06,22,05,44,12.60
2007,06,22,05,45,12.60
2007,06,22,05,46,12.60
2007,06,22,05,47,12.70
2007,06,22,05,48,12.70
2007,06,22,05,49,12.60
2007,06,22,05,50,12.60
2007,06,22,05,51,12.50
2007,06,22,05,52,12.40
2007,06,22,05,53,12.40
2007,06,22,05,54,12.30
2007,06,22,05,55,12.30
2007,06,22,05,56,12.20
2007,06,22,05,57,12.10
2007,06,22,05,58,12.10
2007,06,22,05,59,12.00
2007,06,22,06,00,11.90
2007,06,22,06,01,11.80
2007,06,22,06,02,11.70
2007,06,22,06,03,11.70
2007,06,22,06,04,11.60
2007,06,22,06,05,11.60
2007,06,22,06,06,11.50
2007,06,22,06,07,11.50
2007,06,22,06,08,11.50
2007,06,22,06,09,11.40
2007,06,22,06,10,11.40
2007,06,22,06,11,11.30
2007,06,22,06,12,11.30
2007,06,22,06,13,11.30
2007,06,22,06,14,11.30
2007,06,22,06,15,11.30
2007,06,22,06,16,11.20
2007,06,22,06,17,11.20
2007,06,22,06,18,11.20
2007,06,22,06,19,11.20
2007,06,22,06,20,11.20
2007,06,22,06,21,11.30
2007,06,22,06,22,11.30
2007,06,22,06,23,11.30
2007,06,22,06,24,11.20
2007,06,22,06,25,11.20
2007,06,22,06,26,11.20
2007,06,22,06,27,11.20
2007,06,22,06,28,11.20
2007,06,22,06,29,11.20
2007,06,22,06,30,11.20
2007,06,22,06,31,11.20
2007,06,22,06,32,11.10
2007,06,22,06,33,11.10
2007,06,22,06,34,11.00
2007,06,22,06,35,11.00
2007,06,22,06,36,10.90
2007,06,22,06,37,10.90
2007,06,22,06,38,10.90
2007,06,22,06,39,10.90
2007,06,22,06,40,10.80
2007,06,22,06,41,10.80
2007,06,22,06,42,10.80
2007,06,22,06,43,10.80
2007,06,22,06,44,10.80
2007,06,22,06,45,10.70
2007,06,22,06,46,10.70
2007,06,22,06,47,10.70
2007,06,22,06,48,10.70
2007,06,22,06,49,10.70
2007,06,22,06,50,10.70
2007,06,22,06,51,10.70
2007,06,22,06,52,10.70
2007,06,22,06,53,10.80
2007,06,22,06,54,10.80
2007,06,22,06,55,10.80
2007,06,22,06,56,10.80
2007,06,22,06,57,10.80
2007,06,22,06,58,10.80
2007,06,22,06,59,10.90
2007,06,22,07,00,10.90
2007,06,22,07,01,11.00
2007,06,22,07,02,11.10
2007,06,22,07,03,11.20
2007,06,22,07,04,11.20
2007,06,22,07,05,11.30
2007,06,22,07,06,11.40
2007,06,22,07,07,11.50
2007,06,22,07,08,11.60
2007,06,22,07,09,11.70
2007,06,22,07,10,11.70
2007,06,22,07,11,11.80
2007,06,22,07,12,11.80
2007,06,22,07,13,11.90
2007,06,22,07,14,11.90
2007,06,22,07,15,11.90
2007,06,22,07,16,12.00
2007,06,22,07,17,12.00
2007,06,22,07,18,12.10
2007,06,22,07,19,12.20
2007,06,22,07,20,12.20
2007,06,22,07,21,12.40
2007,06,22,07,22,12.50
2007,06,22,07,23,12.60
2007,06,22,07,24,12.60
2007,06,22,07,25,12.70
2007,06,22,07,26,12.70
2007,06,22,07,27,12.80
2007,06,22,07,28,12.80
2007,06,22,07,29,12.80
2007,06,22,07,30,12.90
2007,06,22,07,31,12.90
2007,06,22,07,32,12.90
2007,06,22,07,33,12.90
2007,06,22,07,34,12.90
2007,06,22,07,35,13.00
2007,06,22,07,36,13.00
2007,06,22,07,37,13.00
2007,06,22,07,38,13.00
2007,06,22,07,39,12.90
2007,06,22,07,40,13.00
2007,06,22,07,41,13.00
2007,06,22,07,42,13.00
2007,06,22,07,43,13.00
2007,06,22,07,44,13.10
2007,06,22,07,45,13.10
2007,06,22,07,46,13.10
2007,06,22,07,47,13.10
2007,06,22,07,48,13.10
2007,06,22,07,49,13.20
2007,06,22,07,50,13.20
2007,06,22,07,51,13.20
2007,06,22,07,52,13.20
2007,06,22,07,53,13.20
2007,06,22,07,54,13.30
2007,06,22,07,55,13.30
2007,06,22,07,56,13.40
2007,06,22,07,57,13.50
2007,06,22,07,58,13.60
2007,06,22,07,59,13.60
2007,06,22,08,00,13.70
2007,06,22,08,01,13.80
2007,06,22,08,02,13.80
2007,06,22,08,03,13.90
2007,06,22,08,04,13.90
2007,06,22,08,05,14.00
2007,06,22,08,06,14.00
2007,06,22,08,07,14.00
2007,06,22,08,08,14.00
2007,06,22,08,09,14.00
2007,06,22,08,10,14.00
2007,06,22,08,11,14.00
2007,06,22,08,12,13.90
2007,06,22,08,13,13.90
2007,06,22,08,14,13.90
2007,06,22,08,15,14.00
2007,06,22,08,16,14.10
2007,06,22,08,17,14.20
2007,06,22,08,18,14.30
2007,06,22,08,19,14.50
2007,06,22,08,20,14.60
2007,06,22,08,21,14.70
2007,06,22,08,22,14.80
2007,06,22,08,23,14.90
2007,06,22,08,24,15.00
2007,06,22,08,25,15.00
2007,06,22,08,26,15.00
2007,06,22,08,27,15.00
2007,06,22,08,28,15.10
2007,06,22,08,29,15.20
2007,06,22,08,30,15.30
2007,06,22,08,31,15.40
2007,06,22,08,32,15.50
2007,06,22,08,33,15.60
2007,06,22,08,34,15.70
2007,06,22,08,35,15.70
2007,06,22,08,36,15.70
2007,06,22,08,37,15.80
2007,06,22,08,38,15.80
2007,06,22,08,39,15.80
2007,06,22,08,40,15.80
2007,06,22,08,41,15.80
2007,06,22,08,42,15.80
2007,06,22,08,43,15.80
2007,06,22,08,44,15.80
2007,06,22,08,45,15.80
2007,06,22,08,46,15.80
2007,06,22,08,47,15.80
2007,06,22,08,48,15.80
2007,06,22,08,49,15.80
2007,06,22,08,50,15.80
2007,06,22,08,51,15.90
2007,06,22,08,52,15.90
2007,06,22,08,53,15.90
2007,06,22,08,54,16.00
2007,06,22,08,55,16.10
2007,06,22,08,56,16.10
2007,06,22,08,57,16.10
2007,06,22,08,58,16.20
2007,06,22,08,59,16.10
2007,06,22,09,00,16.00
2007,06,22,09,01,16.00
2007,06,22,09,02,15.90
2007,06,22,09,03,15.90
2007,06,22,09,04,15.90
2007,06,22,09,05,16.00
2007,06,22,09,06,16.10
2007,06,22,09,07,16.20
2007,06,22,09,08,16.30
2007,06,22,09,09,16.40
2007,06,22,09,10,16.50
2007,06,22,09,11,16.50
2007,06,22,09,12,16.60
2007,06,22,09,13,16.60
2007,06,22,09,14,16.60
2007,06,22,09,15,16.70
2007,06,22,09,16,16.70
2007,06,22,09,17,16.70
2007,06,22,09,18,16.60
2007,06,22,09,19,16.60
2007,06,22,09,20,16.60
2007,06,22,09,21,16.60
2007,06,22,09,22,16.70
2007,06,22,09,23,16.80
2007,06,22,09,24,16.80
2007,06,22,09,25,16.80
2007,06,22,09,26,16.90
2007,06,22,09,27,16.90
2007,06,22,09,28,17.00
2007,06,22,09,29,17.10
2007,06,22,09,30,17.10
2007,06,22,09,31,17.10
2007,06,22,09,32,17.00
2007,06,22,09,33,16.90
2007,06,22,09,34,16.80
2007,06,22,09,35,16.70
2007,06,22,09,36,16.50
2007,06,22,09,37,16.40
2007,06,22,09,38,16.30
2007,06,22,09,39,16.30
2007,06,22,09,40,16.20
2007,06,22,09,41,16.10
2007,06,22,09,42,16.00
2007,06,22,09,43,15.90
2007,06,22,09,44,15.90
2007,06,22,09,45,15.80
2007,06,22,09,46,15.70
2007,06,22,09,47,15.70
2007,06,22,09,48,15.60
2007,06,22,09,49,15.60
2007,06,22,09,50,15.60
2007,06,22,09,51,15.50
2007,06,22,09,52,15.50
2007,06,22,09,53,15.40
2007,06,22,09,54,15.30
2007,06,22,09,55,15.30
2007,06,22,09,56,15.20
2007,06,22,09,57,15.20
2007,06,22,09,58,15.20
2007,06,22,09,59,15.10
2007,06,22,10,00,15.10
2007,06,22,10,01,15.10
2007,06,22,10,02,15.10
2007,06,22,10,03,15.10
2007,06,22,10,04,15.10
2007,06,22,10,05,15.10
2007,06,22,10,06,15.10
2007,06,22,10,07,15.10
2007,06,22,10,08,15.10
2007,06,22,10,09,15.20
2007,06,22,10,10,15.20
2007,06,22,10,11,15.10
2007,06,22,10,12,15.10
2007,06,22,10,13,15.10
2007,06,22,10,14,15.00
2007,06,22,10,15,15.00
2007,06,22,10,16,15.00
2007,06,22,10,17,15.00
2007,06,22,10,18,14.90
2007,06,22,10,19,14.90
2007,06,22,10,20,14.80
2007,06,22,10,21,14.70
2007,06,22,10,22,14.60
2007,06,22,10,23,14.60
2007,06,22,10,24,14.60
2007,06,22,10,25,14.60
2007,06,22,10,26,14.60
2007,06,22,10,27,14.60
2007,06,22,10,28,14.60
2007,06,22,10,29,14.70
2007,06,22,10,30,14.70
2007,06,22,10,31,14.70
2007,06,22,10,32,14.80
2007,06,22,10,33,14.80
2007,06,22,10,34,14.90
2007,06,22,10,35,15.00
2007,06,22,10,36,15.00
2007,06,22,10,37,15.00
2007,06,22,10,38,15.10
2007,06,22,10,39,15.30
2007,06,22,10,40,15.30
2007,06,22,10,41,15.40
2007,06,22,10,42,15.50
2007,06,22,10,43,15.60
2007,06,22,10,44,15.80
2007,06,22,10,45,15.90
2007,06,22,10,46,16.10
2007,06,22,10,47,16.30
2007,06,22,10,48,16.40
2007,06,22,10,49,16.60
2007,06,22,10,50,16.60
2007,06,22,10,51,16.50
2007,06,22,10,52,16.50
2007,06,22,10,53,16.40
2007,06,22,10,54,16.30
2007,06,22,10,55,16.10
2007,06,22,10,56,16.00
2007,06,22,10,57,15.90
2007,06,22,10,58,15.80
2007,06,22,10,59,15.70
2007,06,22,11,00,15.70
2007,06,22,11,01,15.60
2007,06,22,11,02,15.50
2007,06,22,11,03,15.30
2007,06,22,11,04,15.30
2007,06,22,11,05,15.20
2007,06,22,11,06,15.20
2007,06,22,11,07,15.20
2007,06,22,11,08,15.20
2007,06,22,11,09,15.20
2007,06,22,11,10,15.20
2007,06,22,11,11,15.20
2007,06,22,11,12,15.20
2007,06,22,11,13,15.10
2007,06,22,11,14,15.10
2007,06,22,11,15,15.10
2007,06,22,11,16,15.00
2007,06,22,11,17,15.00
2007,06,22,11,18,15.10
2007,06,22,11,19,15.10
2007,06,22,11,20,15.20
2007,06,22,11,21,15.20
2007,06,22,11,22,15.20
2007,06,22,11,23,15.30
2007,06,22,11,24,15.30
2007,06,22,11,25,15.30
2007,06,22,11,26,15.40
2007,06,22,11,27,15.40
2007,06,22,11,28,15.40
2007,06,22,11,29,15.40
2007,06,22,11,30,15.30
2007,06,22,11,31,15.30
2007,06,22,11,32,15.20
2007,06,22,11,33,15.10
2007,06,22,11,34,15.10
2007,06,22,11,35,15.10
2007,06,22,11,36,15.10
2007,06,22,11,37,15.20
2007,06,22,11,38,15.20
2007,06,22,11,39,15.30
2007,06,22,11,40,15.30
2007,06,22,11,41,15.30
2007,06,22,11,42,15.30
2007,06,22,11,43,15.20
2007,06,22,11,44,15.20
2007,06,22,11,45,15.20
2007,06,22,11,46,15.20
2007,06,22,11,47,15.20
2007,06,22,11,48,15.20
2007,06,22,11,49,15.20
2007,06,22,11,50,15.20
2007,06,22,11,51,15.20
2007,06,22,11,52,15.10
2007,06,22,11,53,15.00
2007,06,22,11,54,15.00
2007,06,22,11,55,15.00
2007,06,22,11,56,15.00
2007,06,22,11,57,15.00
2007,06,22,11,58,15.00
2007,06,22,11,59,15.00
2007,06,22,12,00,15.00
2007,06,22,12,01,15.00
2007,06,22,12,02,15.00
2007,06,22,12,03,15.00
2007,06,22,12,04,15.00
2007,06,22,12,05,15.00
2007,06,22,12,06,15.00
2007,06,22,12,07,15.00
2007,06,22,12,08,15.00
2007,06,22,12,09,15.00
2007,06,22,12,10,15.10
2007,06,22,12,11,15.10
2007,06,22,12,12,15.20
2007,06,22,12,13,15.20
2007,06,22,12,14,15.30
2007,06,22,12,15,15.30
2007,06,22,12,16,15.40
2007,06,22,12,17,15.50
2007,06,22,12,18,15.60
2007,06,22,12,19,15.70
2007,06,22,12,20,15.80
2007,06,22,12,21,15.80
2007,06,22,12,22,15.80
2007,06,22,12,23,15.90
2007,06,22,12,24,15.90
2007,06,22,12,25,15.90
2007,06,22,12,26,15.80
2007,06,22,12,27,15.80
2007,06,22,12,28,15.80
2007,06,22,12,29,15.80
2007,06,22,12,30,15.90
2007,06,22,12,31,15.90
2007,06,22,12,32,16.00
2007,06,22,12,33,16.10
2007,06,22,12,34,16.20
2007,06,22,12,35,16.30
2007,06,22,12,36,16.50
2007,06,22,12,37,16.60
2007,06,22,12,38,16.60
2007,06,22,12,39,16.70
2007,06,22,12,40,16.70
2007,06,22,12,41,16.70
2007,06,22,12,42,16.60
2007,06,22,12,43,16.60
2007,06,22,12,44,16.60
2007,06,22,12,45,16.60
2007,06,22,12,46,16.60
2007,06,22,12,47,16.60
2007,06,22,12,48,16.60
2007,06,22,12,49,16.50
2007,06,22,12,50,16.40
2007,06,22,12,51,16.40
2007,06,22,12,52,16.30
2007,06,22,12,53,16.30
2007,06,22,12,54,16.40
2007,06,22,12,55,16.50
2007,06,22,12,56,16.50
2007,06,22,12,57,16.60
2007,06,22,12,58,16.60
2007,06,22,12,59,16.70
2007,06,22,13,00,16.70
2007,06,22,13,01,16.70
2007,06,22,13,02,16.70
2007,06,22,13,03,16.60
2007,06,22,13,04,16.60
2007,06,22,13,05,16.60
2007,06,22,13,06,16.60
2007,06,22,13,07,16.60
2007,06,22,13,08,16.60
2007,06,22,13,09,16.60
2007,06,22,13,10,16.60
2007,06,22,13,11,16.70
2007,06,22,13,12,16.70
2007,06,22,13,13,16.70
2007,06,22,13,14,16.60
2007,06,22,13,15,16.50
2007,06,22,13,16,16.50
2007,06,22,13,17,16.50
2007,06,22,13,18,16.50
2007,06,22,13,19,16.50
2007,06,22,13,20,16.60
2007,06,22,13,21,16.60
2007,06,22,13,22,16.70
2007,06,22,13,23,16.70
2007,06,22,13,24,16.60
2007,06,22,13,25,16.50
2007,06,22,13,26,16.40
2007,06,22,13,27,16.30
2007,06,22,13,28,16.20
2007,06,22,13,29,16.20
2007,06,22,13,30,16.20
2007,06,22,13,31,16.20
2007,06,22,13,32,16.20
2007,06,22,13,33,16.20
2007,06,22,13,34,16.20
2007,06,22,13,35,16.20
2007,06,22,13,36,16.20
2007,06,22,13,37,16.20
2007,06,22,13,38,16.10
2007,06,22,13,39,16.00
2007,06,22,13,40,16.00
2007,06,22,13,41,16.00
2007,06,22,13,42,16.00
2007,06,22,13,43,15.90
2007,06,22,13,44,15.90
2007,06,22,13,45,15.80
2007,06,22,13,46,15.80
2007,06,22,13,47,15.80
2007,06,22,13,48,15.80
2007,06,22,13,49,15.80
2007,06,22,13,50,15.80
2007,06,22,13,51,15.80
2007,06,22,13,52,15.80
2007,06,22,13,53,15.80
2007,06,22,13,54,15.80
2007,06,22,13,55,15.80
2007,06,22,13,56,15.80
2007,06,22,13,57,15.80
2007,06,22,13,58,15.80
2007,06,22,13,59,15.70
2007,06,22,14,00,15.70
2007,06,22,14,01,15.70
2007,06,22,14,02,15.70
2007,06,22,14,03,15.70
2007,06,22,14,04,15.70
2007,06,22,14,05,15.70
2007,06,22,14,06,15.60
2007,06,22,14,07,15.50
2007,06,22,14,08,15.40
2007,06,22,14,09,15.30
2007,06,22,14,10,15.10
2007,06,22,14,11,15.00
2007,06,22,14,12,15.00
2007,06,22,14,13,14.90
2007,06,22,14,14,14.80
2007,06,22,14,15,14.70
2007,06,22,14,16,14.50
2007,06,22,14,17,14.30
2007,06,22,14,18,14.20
2007,06,22,14,19,14.10
2007,06,22,14,20,13.90
2007,06,22,14,21,13.80
2007,06,22,14,22,13.70
2007,06,22,14,23,13.60
2007,06,22,14,24,13.60
2007,06,22,14,25,13.50
2007,06,22,14,26,13.50
2007,06,22,14,27,13.40
2007,06,22,14,28,13.40
2007,06,22,14,29,13.40
2007,06,22,14,30,13.30
2007,06,22,14,31,13.30
2007,06,22,14,32,13.30
2007,06,22,14,33,13.30
2007,06,22,14,34,13.30
2007,06,22,14,35,13.20
2007,06,22,14,36,13.20
2007,06,22,14,37,13.20
2007,06,22,14,38,13.20
2007,06,22,14,39,13.20
2007,06,22,14,40,13.20
2007,06,22,14,41,13.20
2007,06,22,14,42,13.20
2007,06,22,14,43,13.20
2007,06,22,14,44,13.20
2007,06,22,14,45,13.20
2007,06,22,14,46,13.20
2007,06,22,14,47,13.30
2007,06,22,14,48,13.40
2007,06,22,14,49,13.40
2007,06,22,14,50,13.50
2007,06,22,14,51,13.60
2007,06,22,14,52,13.70
2007,06,22,14,53,13.80
2007,06,22,14,54,13.90
2007,06,22,14,55,13.90
2007,06,22,14,56,13.90
2007,06,22,14,57,13.90
2007,06,22,14,58,14.00
2007,06,22,14,59,14.00
2007,06,22,15,00,14.10
2007,06,22,15,01,14.20
2007,06,22,15,02,14.20
2007,06,22,15,03,14.30
2007,06,22,15,04,14.30
2007,06,22,15,05,14.30
2007,06,22,15,06,14.40
2007,06,22,15,07,14.40
2007,06,22,15,08,14.60
2007,06,22,15,09,14.60
2007,06,22,15,10,14.70
2007,06,22,15,11,14.80
2007,06,22,15,12,14.80
2007,06,22,15,13,14.90
2007,06,22,15,14,15.00
2007,06,22,15,15,15.00
2007,06,22,15,16,15.00
2007,06,22,15,17,15.20
2007,06,22,15,18,15.30
2007,06,22,15,19,15.40
2007,06,22,15,20,15.40
2007,06,22,15,21,15.50
2007,06,22,15,22,15.60
2007,06,22,15,23,15.70
2007,06,22,15,24,15.70
2007,06,22,15,25,15.70
2007,06,22,15,26,15.60
2007,06,22,15,27,15.50
2007,06,22,15,28,15.50
2007,06,22,15,29,15.50
2007,06,22,15,30,15.40
2007,06,22,15,31,15.40
2007,06,22,15,32,15.40
2007,06,22,15,33,15.40
2007,06,22,15,34,15.40
2007,06,22,15,35,15.40
2007,06,22,15,36,15.40
2007,06,22,15,37,15.30
2007,06,22,15,38,15.20
2007,06,22,15,39,15.20
2007,06,22,15,40,15.10
2007,06,22,15,41,15.00
2007,06,22,15,42,15.00
2007,06,22,15,43,15.00
2007,06,22,15,44,15.00
2007,06,22,15,45,15.00
2007,06,22,15,46,15.00
2007,06,22,15,47,14.90
2007,06,22,15,48,14.80
2007,06,22,15,49,14.80
2007,06,22,15,50,14.80
2007,06,22,15,51,14.90
2007,06,22,15,52,14.90
2007,06,22,15,53,14.90
2007,06,22,15,54,14.90
2007,06,22,15,55,14.80
2007,06,22,15,56,14.90
2007,06,22,15,57,14.90
2007,06,22,15,58,15.00
2007,06,22,15,59,15.00
2007,06,22,16,00,15.00
2007,06,22,16,01,15.00
2007,06,22,16,02,15.20
2007,06,22,16,03,15.40
2007,06,22,16,04,15.50
2007,06,22,16,05,15.70
2007,06,22,16,06,15.80
2007,06,22,16,07,15.90
2007,06,22,16,08,16.00
2007,06,22,16,09,15.90
2007,06,22,16,10,16.00
2007,06,22,16,11,16.00
2007,06,22,16,12,16.00
2007,06,22,16,13,16.00
2007,06,22,16,14,16.10
2007,06,22,16,15,16.10
2007,06,22,16,16,16.10
2007,06,22,16,17,16.10
2007,06,22,16,18,16.20
2007,06,22,16,19,16.20
2007,06,22,16,20,16.30
2007,06,22,16,21,16.30
2007,06,22,16,22,16.30
2007,06,22,16,23,16.30
2007,06,22,16,24,16.30
2007,06,22,16,25,16.30
2007,06,22,16,26,16.30
2007,06,22,16,27,16.20
2007,06,22,16,28,16.10
2007,06,22,16,29,16.00
2007,06,22,16,30,15.90
2007,06,22,16,31,15.80
2007,06,22,16,32,15.80
2007,06,22,16,33,15.80
2007,06,22,16,34,15.80
2007,06,22,16,35,15.70
2007,06,22,16,36,15.70
2007,06,22,16,37,15.70
2007,06,22,16,38,15.70
2007,06,22,16,39,15.60
2007,06,22,16,40,15.60
2007,06,22,16,41,15.60
2007,06,22,16,42,15.60
2007,06,22,16,43,15.60
2007,06,22,16,44,15.60
2007,06,22,16,45,15.70
2007,06,22,16,46,15.60
2007,06,22,16,47,15.60
2007,06,22,16,48,15.60
2007,06,22,16,49,15.50
2007,06,22,16,50,15.40
2007,06,22,16,51,15.40
2007,06,22,16,52,15.40
2007,06,22,16,53,15.40
2007,06,22,16,54,15.40
2007,06,22,16,55,15.40
2007,06,22,16,56,15.40
2007,06,22,16,57,15.40
2007,06,22,16,58,15.50
2007,06,22,16,59,15.50
2007,06,22,17,00,15.60
2007,06,22,17,01,15.60
2007,06,22,17,02,15.60
2007,06,22,17,03,15.60
2007,06,22,17,04,15.60
2007,06,22,17,05,15.60
2007,06,22,17,06,15.50
2007,06,22,17,07,15.50
2007,06,22,17,08,15.40
2007,06,22,17,09,15.40
2007,06,22,17,10,15.40
2007,06,22,17,11,15.40
2007,06,22,17,12,15.40
2007,06,22,17,13,15.40
2007,06,22,17,14,15.40
2007,06,22,17,15,15.40
2007,06,22,17,16,15.40
2007,06,22,17,17,15.40
2007,06,22,17,18,15.40
2007,06,22,17,19,15.40